OPS 4682 DEB, 38431

Orbit data source: Space-Track

OPS 4682 DEB, 38431 is space debris in LEO originally from a launch on Sat, 03 Apr 1965 UTC launched from the Air Force Western Test Range (AFWTR). Debris objects in space refer to the collection of defunct objects orbiting the Earth. Examples of debris include non-operational satellites, rocket bodies, and fragments generated from explosions, collisions, or faulty payload assembly.

Loading next visibility...
Identifier
38431, 1965-027EL
Orbit
LEO
Country
Flag of USUS
Related business
Manufacturer
Unknown
Mission
Spacecraft
Bus & Motor
Unknown
Mass
Unknown
Launch date (UTC)
1965-04-03 (61 years ago)
Launch vehicle
Unknown
Launch site
Air Force Western Test Range (AFWTR)
Object type
Payload
Rocket body
Debris
Shape & HBR
Unknown shape, 0.1 m
Radar Cross Section
Medium (>0.1 m² and <1 m²)

Expand to show TLE details & history
Last TLE update: 2 days ago

TLE from 2 days ago
0 OPS 4682 DEB
1 38431U 65027EL  26206.88333748  .00000741  00000-0  24080-2 0  9997
2 38431  90.2353 358.3421 0026350 126.6755 233.6794 13.00716453669608
Epoch: 2026-07-25T21:12Z
TLE epoch observation values (Epoch: 2026-07-25T21:12:00.358Z)
Latitude
-0.00009°
Longitude
96.75138°
Altitude
1,274.122 km
Speed
7.213 km/s
True Right ascension
23h 53m 22s
True Declination
0° 00' 00"
Sunlit
Object was in full shadow at epoch
Visualization orbit readout
Latitude
Unknown
Longitude
Unknown
Altitude
Unknown
Speed
Unknown
Apparent Right ascension
Unknown
Apparent Declination
Unknown
Sunlit
N/A
Visualization observer readout
Local Sidereal Time
00:02:14
Azimuth
Unknown
Elevation
Unknown
Doppler factor
Unknown
Orbital elements
Apogee altitude
1,276.524 km
Perigee altitude
1,236.29 km
Semi-major axis
7,634.544 km
Eccentricity
0.00264
Inclination
90.2353°
RAAN
358.3421°
Arg. of periapsis
126.6755°
True anomaly
233.43659°
Mean anomaly
233.6794°
Eccentric anomaly
233.55795°
Mean motion
3.25363 °/min
Orbital period
110.65 mins
BSTAR
0.002408
Loading maneuver chart data...
Computing Atmospheric mass density...
Loading historical data...
Loading historical data...
Loading historical data...
Loading historical data...
Loading historical data...
Loading historical data...
Loading historical data...

Documentation

Showing up to 5 results
|